Cedar Key Weather Center

Moon Phase Calendar



Online Cameras

 


      

Current Conditions in Inglis
7/26/2021 9:42:15 AM

81°F
Feels Like 84
Clear
Humidity
66%
Pressure
29.94"
Wind
5.3 mph (N)
Dew Point
68°F
UV Index
4/10 (Moderate)
Visibility
6 mi

Hourly Forecast

Date & Time Mon, Jul 26
9:00 AM
Mon, Jul 26
10:00 AM
Mon, Jul 26
11:00 AM
Mon, Jul 26
12:00 PM
Mon, Jul 26
1:00 PM
Mon, Jul 26
2:00 PM
Mon, Jul 26
3:00 PM
Mon, Jul 26
4:00 PM
Mon, Jul 26
5:00 PM
Mon, Jul 26
6:00 PM
Mon, Jul 26
7:00 PM
Mon, Jul 26
8:00 PM
Mon, Jul 26
9:00 PM
Mon, Jul 26
10:00 PM
Mon, Jul 26
11:00 PM
Tue, Jul 27
12:00 AM
Tue, Jul 27
1:00 AM
Tue, Jul 27
2:00 AM
Tue, Jul 27
3:00 AM
Tue, Jul 27
4:00 AM
Tue, Jul 27
5:00 AM
Tue, Jul 27
6:00 AM
Tue, Jul 27
7:00 AM
Tue, Jul 27
8:00 AM
Tue, Jul 27
9:00 AM
Tue, Jul 27
10:00 AM
Tue, Jul 27
11:00 AM
Tue, Jul 27
12:00 PM
Tue, Jul 27
1:00 PM
Tue, Jul 27
2:00 PM
Tue, Jul 27
3:00 PM
Tue, Jul 27
4:00 PM
Tue, Jul 27
5:00 PM
Tue, Jul 27
6:00 PM
Tue, Jul 27
7:00 PM
Tue, Jul 27
8:00 PM
Tue, Jul 27
9:00 PM
Tue, Jul 27
10:00 PM
Tue, Jul 27
11:00 PM
Wed, Jul 28
12:00 AM
Wed, Jul 28
1:00 AM
Wed, Jul 28
2:00 AM
Wed, Jul 28
3:00 AM
Wed, Jul 28
4:00 AM
Wed, Jul 28
5:00 AM
Wed, Jul 28
6:00 AM
Wed, Jul 28
7:00 AM
Wed, Jul 28
8:00 AM
Condition
Clear

Clear

Clear

Clear

Clear

Clear

Clouds

Clouds

Clouds

Clouds

Clouds

Clouds

Clouds

Clouds

Clouds

Clouds

Clouds

Clouds

Clouds

Clouds

Clouds

Clouds

Clouds

Clouds

Clouds

Clouds

Clouds

Clouds

Clouds

Clouds

Clouds

Clouds

Clouds

Clouds

Clouds

Clouds

Clouds

Clouds

Clouds

Clouds

Clouds

Clouds

Clouds

Clouds

Clouds

Rain

Rain

Rain
Temperature 81°F81°F82°F83°F85°F87°F88°F86°F86°F87°F86°F84°F83°F83°F83°F83°F83°F83°F83°F83°F82°F82°F82°F83°F85°F86°F87°F88°F88°F88°F88°F88°F87°F87°F86°F85°F84°F83°F83°F83°F82°F82°F82°F82°F82°F81°F81°F81°F
Feels Like 84°F84°F85°F87°F89°F92°F93°F91°F91°F91°F90°F89°F88°F87°F87°F87°F87°F87°F88°F87°F87°F87°F87°F89°F91°F92°F93°F94°F95°F94°F94°F94°F93°F93°F92°F91°F90°F89°F89°F89°F88°F88°F88°F87°F87°F86°F85°F86°F
Cloudiness 0%0%0%0%0%2%45%45%45%48%55%63%100%100%100%100%100%95%92%94%94%85%81%78%100%100%100%100%91%85%22%22%22%22%22%21%35%23%21%22%36%47%100%100%94%95%96%97%
Visibility 6 mi6 mi6 mi6 mi6 mi6 mi6 mi6 mi6 mi6 mi6 mi6 mi6 mi6 mi6 mi6 mi6 mi6 mi6 mi6 mi6 mi6 mi6 mi6 mi6 mi6 mi6 mi6 mi6 mi6 mi6 mi6 mi6 mi6 mi6 mi6 mi6 mi6 mi6 mi6 mi6 mi6 mi6 mi6 mi6 mi6 mi6 mi6 mi
Precipitation 0%2%8%15%15%19%18%15%15%15%19%17%15%15%15%15%15%15%2%10%10%10%10%13%3%5%12%10%10%10%5%5%5%5%5%5%7%11%13%19%15%14%13%21%29%29%33%37%
Humidity 68%66%64%61%58%56%56%59%58%57%58%62%64%64%65%66%66%67%68%69%70%71%72%71%67%63%60%59%58%59%59%58%59%61%65%68%70%71%72%73%74%74%75%75%76%77%78%79%
Dew Point 69°F68°F68°F69°F69°F70°F69°F70°F70°F69°F70°F70°F70°F70°F70°F70°F70°F71°F71°F71°F72°F72°F72°F73°F72°F72°F71°F71°F71°F71°F71°F71°F71°F72°F72°F73°F73°F73°F73°F73°F73°F73°F73°F73°F73°F73°F73°F74°F
Pressure 29.94"29.94"29.94"29.94"29.94"29.91"29.91"29.91"29.91"29.91"29.91"29.91"29.91"29.94"29.94"29.94"29.94"29.94"29.94"29.94"29.94"29.94"29.94"29.97"30"30"30"30.03"30"30"29.97"29.97"29.97"29.97"29.94"29.97"30"30"30"30"30"29.97"29.97"29.97"29.97"30"30"30"
Wind Speed 5.3 mph5.3 mph4.9 mph4.3 mph6.2 mph8.3 mph8.5 mph7.1 mph6.5 mph6 mph5.3 mph4.3 mph4.4 mph4 mph3.8 mph4.1 mph4.6 mph5.3 mph5.4 mph5.8 mph6.1 mph6 mph6 mph5.4 mph6 mph5.9 mph5.2 mph5.6 mph7 mph8.1 mph8.6 mph9 mph8.9 mph8.9 mph10.3 mph9.5 mph7.4 mph7.8 mph6.3 mph7 mph5.7 mph5.4 mph4.7 mph4.1 mph3.4 mph3 mph3.4 mph3.2 mph
Wind
Direction

N
356°
N
340°
NNW
304°
NW
274°
W
265°
W
258°
WSW
251°
WSW
246°
WSW
252°
WSW
259°
W
263°
W
263°
W
254°
WSW
250°
WSW
257°
WSW
252°
WSW
246°
WSW
237°
WSW
216°
SW
234°
SW
235°
SW
237°
WSW
242°
WSW
248°
WSW
246°
WSW
246°
WSW
231°
SW
222°
SW
220°
SW
220°
SW
218°
SW
217°
SW
218°
SW
203°
SSW
220°
SW
236°
SW
222°
SW
248°
WSW
237°
WSW
266°
W
264°
W
246°
WSW
245°
WSW
261°
W
264°
W
262°
W
258°
WSW

Daily Forecast

Date High Low Precip. Humidity
Today
Jul 26

Clear
88 °F
78 °F
19%
58%
Tuesday
Jul 27

Clouds
88 °F
82 °F
15%
58%
Wednesday
Jul 28

Rain
88 °F
81 °F
43%
61%
Thursday
Jul 29

Rain
86 °F
81 °F
67%
69%
Friday
Jul 30

Rain
87 °F
80 °F
77%
63%
Saturday
Jul 31

Clouds
88 °F
82 °F
21%
63%
Sunday
Aug 1

Clouds
88 °F
82 °F
17%
60%
Monday
Aug 2

Rain
87 °F
82 °F
25%
66%
Tuesday
Aug 3

Rain
88 °F
81 °F
35%
60%
Wednesday
Aug 4

Rain
88 °F
81 °F
52%
58%
Thursday
Aug 5

Rain
89 °F
79 °F
71%
59%
Friday
Aug 6

Rain
88 °F
77 °F
99%
62%
Saturday
Aug 7

Rain
87 °F
80 °F
80%
65%
Sunday
Aug 8

Rain
88 °F
81 °F
22%
59%
Monday
Aug 9

Rain
89 °F
80 °F
31%
58%
Tuesday
Aug 10

Rain
89 °F
76 °F
100%
56%

Temperature 8-14 Day Outlook



Precipitation 8-14 Day Outlook




Quick Links
Cedar Key News
Cedar Key Photos
Cedar Key Videos




About Us
Contact Us
Site Map
Search Site
Advertise With Us
   
CedarKey.USGulf.info
THE CEDAR KEY WEBSITE

Copyright 2021, Coastal Town
Privacy    |    Legal